Regional Weather Roundup
Issued by NWS

Home | Current Version | Previous Version | Graphics & Text | Print | Product List | Glossary On
Versions: 1 2 3 4 5 6 7 8 9 10 11 12 13 14 15 16 17 18 19 20 21 22 23 24 25 26 27 28 29 30 31 32 33 34 35 36 37 38 39 40 41 42 43 44 45 46 47 48 49 50
000
ASUS43 KFSD 302102
RWRSD

WEATHER ROUNDUP FOR SOUTH DAKOTA
NATIONAL WEATHER SERVICE SIOUX FALLS SD
400 PM CDT FRI SEP 30 2016

NOTE: "FAIR" INDICATES FEW OR NO CLOUDS BELOW 12,000 FEET WITH NO
SIGNIFICANT WEATHER AND/OR OBSTRUCTIONS TO VISIBILITY.


SDZ001>005-009-010-012>017-302200-
NORTHWEST AND NORTH CENTRAL SOUTH DAKOTA

CITY           SKY/WX    TMP DP  RH WIND       PRES   REMARKS
BUFFALO          N/A     75  46  35 SE22G28   29.94F
FAITH            N/A     71  46  40 S22G29    30.03F
MOBRIDGE       PTSUNNY   73  44  35 SE24G31   30.07S
$$

SDZ012>016-024>037-041>051-057-063-072>074-302200-
SOUTHWEST AND SOUTH CENTRAL SOUTH DAKOTA

CITY           SKY/WX    TMP DP  RH WIND       PRES   REMARKS
RAPID CTY ARPT PTSUNNY   71  50  47 SE8       30.03F
PIERRE         CLOUDY    72  46  39 SE23G32   30.08F
CUSTER         CLOUDY    67  45  45 W7        30.16F
ELLSWORTH AFB  CLOUDY    73  50  45 S8        30.03S
PHILIP         MOSUNNY   80  48  32 S20G28    30.02F
PINE RIDGE     CLOUDY    76  47  35 S10       30.07F
WINNER         FAIR      75  46  35 S18G26    30.13F
$$

SDZ004>011-016>023-039-040-302200-
NORTHEAST SOUTH DAKOTA

CITY           SKY/WX    TMP DP  RH WIND       PRES   REMARKS
ABERDEEN       PTSUNNY   72  42  34 SE16      30.16F
WATERTOWN      MOSUNNY   71  45  39 SE8G21    30.20F
SISSETON         N/A     71  49  45 SE15      30.20F
$$

SDZ017-020-022-023-036>040-048>070-302200-
SOUTHEAST SOUTH DAKOTA

CITY           SKY/WX    TMP DP  RH WIND       PRES   REMARKS
SIOUX FALLS    CLOUDY    72  46  39 SE10      30.19F
HURON          PTSUNNY   73  47  39 S15G22    30.16F
MITCHELL       MOSUNNY   73  45  36 S10       30.18F
YANKTON        SUNNY     72  43  35 SE8G16    30.17F
$$

ABBREVIATIONS USED IN REMARKS
   TC - TEMPERATURE IN CELSIUS
  WCI - WIND CHILL INDEX
   HX - HEAT INDEX
  VSB - VISIBILITY





USA.gov is the U.S. government's official web portal to all federal, state and local government web resources and services.